Time,TemperatureF,DewpointF,PressureIn,WindDirection,WindDirectionDegrees,WindSpeedMPH,WindSpeedGustMPH,Humidity,HourlyPrecipIn,Conditions,Clouds,dailyrainin,SoftwareType,DateUTC
2013-02-14 00:00:00,49.3,34.7,30.15,NNW,333,0.0,0.0,57,0.00,,,0.00,WeatherCatV1.10B1784,2013-02-14 08:00:00,
2013-02-14 00:05:00,49.6,34.6,30.15,NNW,333,0.0,0.0,56,0.00,,,0.00,WeatherCatV1.10B1784,2013-02-14 08:05:00,
2013-02-14 00:10:00,49.8,34.3,30.15,NNW,333,0.0,0.0,55,0.00,,,0.00,WeatherCatV1.10B1784,2013-02-14 08:10:00,
2013-02-14 00:15:00,50.1,34.6,30.15,NNW,333,0.0,0.0,55,0.00,,,0.00,WeatherCatV1.10B1784,2013-02-14 08:15:00,
2013-02-14 00:20:00,50.3,34.8,30.15,NNW,333,0.0,0.0,55,0.00,,,0.00,WeatherCatV1.10B1784,2013-02-14 08:20:00,
2013-02-14 00:25:00,50.5,34.9,30.15,NNW,333,0.0,0.0,55,0.00,,,0.00,WeatherCatV1.10B1784,2013-02-14 08:25:00,
2013-02-14 00:30:00,50.8,34.8,30.15,NNW,339,0.0,1.0,54,0.00,,,0.00,WeatherCatV1.10B1784,2013-02-14 08:30:00,
2013-02-14 00:35:00,51.0,34.9,30.15,NNW,339,0.0,0.0,54,0.00,,,0.00,WeatherCatV1.10B1784,2013-02-14 08:35:00,
2013-02-14 00:40:00,51.1,34.6,30.15,NNW,339,0.0,0.0,53,0.00,,,0.00,WeatherCatV1.10B1784,2013-02-14 08:40:00,
2013-02-14 00:45:00,51.3,34.8,30.15,NNW,339,0.0,0.0,53,0.00,,,0.00,WeatherCatV1.10B1784,2013-02-14 08:45:00,
2013-02-14 00:50:00,51.3,34.8,30.15,NNW,348,0.0,0.0,53,0.00,,,0.00,WeatherCatV1.10B1784,2013-02-14 08:50:00,
2013-02-14 00:55:00,51.4,34.8,30.15,NNW,348,0.0,0.0,53,0.00,,,0.00,WeatherCatV1.10B1784,2013-02-14 08:55:00,
2013-02-14 01:00:00,51.3,34.8,30.15,NNW,347,0.0,0.0,53,0.00,,,0.00,WeatherCatV1.10B1784,2013-02-14 09:00:00,
2013-02-14 01:05:00,51.1,35.5,30.15,NNW,345,0.0,1.0,55,0.00,,,0.00,WeatherCatV1.10B1784,2013-02-14 09:05:00,
2013-02-14 01:10:00,50.8,34.8,30.15,NNW,345,0.0,1.0,54,0.00,,,0.00,WeatherCatV1.10B1784,2013-02-14 09:10:00,
2013-02-14 01:15:00,50.5,34.9,30.15,NNW,340,2.0,2.0,55,0.00,,,0.00,WeatherCatV1.10B1784,2013-02-14 09:15:00,
2013-02-14 01:20:00,50.2,34.7,30.15,NNW,340,0.0,0.0,55,0.00,,,0.00,WeatherCatV1.10B1784,2013-02-14 09:20:00,
2013-02-14 01:25:00,50.2,34.7,30.15,NNW,327,3.0,6.0,55,0.00,,,0.00,WeatherCatV1.10B1784,2013-02-14 09:25:00,
2013-02-14 01:30:00,51.0,35.4,30.15,NNW,341,0.0,0.0,55,0.00,,,0.00,WeatherCatV1.10B1784,2013-02-14 09:30:00,
2013-02-14 01:35:00,51.4,35.3,30.15,NNW,335,0.0,1.0,54,0.00,,,0.00,WeatherCatV1.10B1784,2013-02-14 09:35:00,
2013-02-14 01:40:00,51.6,35.5,30.15,NNW,330,0.0,0.0,54,0.00,,,0.00,WeatherCatV1.10B1784,2013-02-14 09:40:00,
2013-02-14 01:45:00,51.7,35.1,30.15,NNW,330,0.0,0.0,53,0.00,,,0.00,WeatherCatV1.10B1784,2013-02-14 09:45:00,
2013-02-14 01:50:00,51.8,35.7,30.15,NNW,339,0.0,2.0,54,0.00,,,0.00,WeatherCatV1.10B1784,2013-02-14 09:50:00,
2013-02-14 01:55:00,51.9,35.3,30.15,NNW,339,0.0,0.0,53,0.00,,,0.00,WeatherCatV1.10B1784,2013-02-14 09:55:00,
2013-02-14 02:00:00,51.9,35.3,30.15,NNW,339,0.0,0.0,53,0.00,,,0.00,WeatherCatV1.10B1784,2013-02-14 10:00:00,
2013-02-14 02:05:00,52.0,35.4,30.15,NNW,342,0.0,1.0,53,0.00,,,0.00,WeatherCatV1.10B1784,2013-02-14 10:05:00,
2013-02-14 02:10:00,51.7,35.6,30.15,NNW,332,0.0,3.0,54,0.00,,,0.00,WeatherCatV1.10B1784,2013-02-14 10:10:00,
2013-02-14 02:15:00,51.5,34.9,30.15,NNW,332,1.0,1.0,53,0.00,,,0.00,WeatherCatV1.10B1784,2013-02-14 10:15:00,
2013-02-14 02:20:00,51.3,35.2,30.15,NNW,335,0.0,0.0,54,0.00,,,0.00,WeatherCatV1.10B1784,2013-02-14 10:20:00,
2013-02-14 02:25:00,51.0,35.4,30.15,NNW,337,0.0,3.0,55,0.00,,,0.00,WeatherCatV1.10B1784,2013-02-14 10:25:00,
2013-02-14 02:30:00,50.8,35.7,30.14,NNW,337,0.0,1.0,56,0.00,,,0.00,WeatherCatV1.10B1784,2013-02-14 10:30:00,
2013-02-14 02:35:00,50.5,35.4,30.14,NW,325,0.0,0.0,56,0.00,,,0.00,WeatherCatV1.10B1784,2013-02-14 10:35:00,
2013-02-14 02:40:00,50.5,34.9,30.14,NW,323,0.0,0.0,55,0.00,,,0.00,WeatherCatV1.10B1784,2013-02-14 10:40:00,
2013-02-14 02:45:00,50.6,35.0,30.14,NW,323,0.0,0.0,55,0.00,,,0.00,WeatherCatV1.10B1784,2013-02-14 10:45:00,
2013-02-14 02:50:00,50.8,35.2,30.14,NNW,334,0.0,0.0,55,0.00,,,0.00,WeatherCatV1.10B1784,2013-02-14 10:50:00,
2013-02-14 02:55:00,50.9,35.3,30.14,NNW,335,0.0,0.0,55,0.00,,,0.00,WeatherCatV1.10B1784,2013-02-14 10:55:00,
2013-02-14 03:00:00,51.2,35.6,30.13,SSE,153,0.0,2.0,55,0.00,,,0.00,WeatherCatV1.10B1784,2013-02-14 11:00:00,
2013-02-14 03:05:00,51.7,35.6,30.13,South,171,0.0,0.0,54,0.00,,,0.00,WeatherCatV1.10B1784,2013-02-14 11:05:00,
2013-02-14 03:10:00,51.8,35.7,30.13,SW,214,0.0,0.0,54,0.00,,,0.00,WeatherCatV1.10B1784,2013-02-14 11:10:00,
2013-02-14 03:15:00,51.5,35.4,30.13,NW,312,0.0,1.0,54,0.00,,,0.00,WeatherCatV1.10B1784,2013-02-14 11:15:00,
2013-02-14 03:20:00,51.3,35.7,30.13,SSE,159,0.0,0.0,55,0.00,,,0.00,WeatherCatV1.10B1784,2013-02-14 11:20:00,
2013-02-14 03:25:00,51.0,35.4,30.13,SSE,159,1.0,1.0,55,0.00,,,0.00,WeatherCatV1.10B1784,2013-02-14 11:25:00,
2013-02-14 03:30:00,50.6,35.5,30.13,WNW,283,0.0,0.0,56,0.00,,,0.00,WeatherCatV1.10B1784,2013-02-14 11:30:00,
2013-02-14 03:35:00,50.3,35.7,30.13,NNW,336,2.0,3.0,57,0.00,,,0.00,WeatherCatV1.10B1784,2013-02-14 11:35:00,
2013-02-14 03:40:00,50.8,35.7,30.13,North,349,5.0,9.0,56,0.00,,,0.00,WeatherCatV1.10B1784,2013-02-14 11:40:00,
2013-02-14 03:45:00,51.8,35.7,30.13,North,354,0.0,1.0,54,0.00,,,0.00,WeatherCatV1.10B1784,2013-02-14 11:45:00,
2013-02-14 03:50:00,52.1,36.0,30.13,NNW,339,1.0,4.0,54,0.00,,,0.00,WeatherCatV1.10B1784,2013-02-14 11:50:00,
2013-02-14 03:55:00,52.3,36.2,30.13,NW,321,4.0,4.0,54,0.00,,,0.00,WeatherCatV1.10B1784,2013-02-14 11:55:00,
2013-02-14 04:00:00,52.2,36.1,30.13,North,358,0.0,3.0,54,0.00,,,0.00,WeatherCatV1.10B1784,2013-02-14 12:00:00,
2013-02-14 04:05:00,52.1,36.0,30.13,NW,319,0.0,6.0,54,0.00,,,0.00,WeatherCatV1.10B1784,2013-02-14 12:05:00,
2013-02-14 04:10:00,52.2,36.1,30.13,NNW,337,6.0,6.0,54,0.00,,,0.00,WeatherCatV1.10B1784,2013-02-14 12:10:00,
2013-02-14 04:15:00,52.1,36.0,30.13,NNW,338,3.0,4.0,54,0.00,,,0.00,WeatherCatV1.10B1784,2013-02-14 12:15:00,
2013-02-14 04:18:00,52.1,36.0,30.13,NNW,335,0.0,1.0,54,0.00,,,0.00,WeatherCatV1.10B1784,2013-02-14 12:18:00,
2013-02-14 04:23:00,51.9,36.2,30.13,NNW,335,0.0,1.0,55,0.00,,,0.00,WeatherCatV1.10B1784,2013-02-14 12:23:00,
2013-02-14 04:28:00,51.5,36.3,30.13,NNW,327,4.0,4.0,56,0.00,,,0.00,WeatherCatV1.10B1784,2013-02-14 12:28:00,
2013-02-14 04:33:00,51.3,35.7,30.13,NE,36,0.0,1.0,55,0.00,,,0.00,WeatherCatV1.10B1784,2013-02-14 12:33:00,
2013-02-14 04:38:00,51.4,35.8,30.13,NNW,329,4.0,10.0,55,0.00,,,0.00,WeatherCatV1.10B1784,2013-02-14 12:38:00,
2013-02-14 04:43:00,51.6,36.0,30.13,NNW,340,2.0,4.0,55,0.00,,,0.00,WeatherCatV1.10B1784,2013-02-14 12:43:00,
2013-02-14 04:48:00,51.5,35.9,30.12,NNW,347,2.0,4.0,55,0.00,,,0.00,WeatherCatV1.10B1784,2013-02-14 12:48:00,
2013-02-14 04:53:00,51.4,35.8,30.12,NNW,342,4.0,7.0,55,0.00,,,0.00,WeatherCatV1.10B1784,2013-02-14 12:53:00,
2013-02-14 04:58:00,51.4,36.2,30.12,NNW,329,2.0,4.0,56,0.00,,,0.00,WeatherCatV1.10B1784,2013-02-14 12:58:00,
2013-02-14 05:03:00,51.4,35.8,30.12,North,349,6.0,7.0,55,0.00,,,0.00,WeatherCatV1.10B1784,2013-02-14 13:03:00,
2013-02-14 05:08:00,51.3,36.1,30.12,NNW,335,5.0,6.0,56,0.00,,,0.00,WeatherCatV1.10B1784,2013-02-14 13:08:00,
2013-02-14 05:13:00,51.3,36.1,30.12,NNW,344,1.0,1.0,56,0.00,,,0.00,WeatherCatV1.10B1784,2013-02-14 13:13:00,
2013-02-14 05:18:00,51.1,36.0,30.13,NNW,338,2.0,2.0,56,0.00,,,0.00,WeatherCatV1.10B1784,2013-02-14 13:18:00,
2013-02-14 05:23:00,51.0,35.9,30.13,North,353,2.0,4.0,56,0.00,,,0.00,WeatherCatV1.10B1784,2013-02-14 13:23:00,
2013-02-14 05:28:00,50.9,36.2,30.13,NNE,20,0.0,2.0,57,0.00,,,0.00,WeatherCatV1.10B1784,2013-02-14 13:28:00,
2013-02-14 05:33:00,51.0,35.9,30.13,NNW,344,0.0,2.0,56,0.00,,,0.00,WeatherCatV1.10B1784,2013-02-14 13:33:00,
2013-02-14 05:38:00,51.1,36.0,30.13,NNW,339,3.0,5.0,56,0.00,,,0.00,WeatherCatV1.10B1784,2013-02-14 13:38:00,
2013-02-14 05:43:00,51.1,36.0,30.13,NNW,344,5.0,7.0,56,0.00,,,0.00,WeatherCatV1.10B1784,2013-02-14 13:43:00,
2013-02-14 05:48:00,51.0,36.3,30.13,North,356,3.0,3.0,57,0.00,,,0.00,WeatherCatV1.10B1784,2013-02-14 13:48:00,
2013-02-14 05:53:00,50.9,36.2,30.13,NNW,332,2.0,5.0,57,0.00,,,0.00,WeatherCatV1.10B1784,2013-02-14 13:53:00,
2013-02-14 05:58:00,51.0,36.3,30.13,NNW,335,2.0,3.0,57,0.00,,,0.00,WeatherCatV1.10B1784,2013-02-14 13:58:00,
2013-02-14 06:03:00,50.9,36.2,30.13,North,358,1.0,5.0,57,0.00,,,0.00,WeatherCatV1.10B1784,2013-02-14 14:03:00,
2013-02-14 06:08:00,51.1,36.4,30.13,NNW,340,3.0,4.0,57,0.00,,,0.00,WeatherCatV1.10B1784,2013-02-14 14:08:00,
2013-02-14 06:13:00,51.2,36.5,30.13,North,352,1.0,4.0,57,0.00,,,0.00,WeatherCatV1.10B1784,2013-02-14 14:13:00,
2013-02-14 06:18:00,51.2,36.5,30.13,NNW,339,3.0,7.0,57,0.00,,,0.00,WeatherCatV1.10B1784,2013-02-14 14:18:00,
2013-02-14 06:23:00,51.4,36.7,30.13,NNW,333,3.0,3.0,57,0.00,,,0.00,WeatherCatV1.10B1784,2013-02-14 14:23:00,
2013-02-14 06:28:00,51.6,36.4,30.13,North,350,1.0,5.0,56,0.00,,,0.00,WeatherCatV1.10B1784,2013-02-14 14:28:00,
2013-02-14 06:33:00,51.6,36.4,30.13,North,0,1.0,5.0,56,0.00,,,0.00,WeatherCatV1.10B1784,2013-02-14 14:33:00,
2013-02-14 06:38:00,51.6,36.4,30.13,NNE,12,2.0,3.0,56,0.00,,,0.00,WeatherCatV1.10B1784,2013-02-14 14:38:00,
2013-02-14 06:43:00,51.6,36.9,30.13,NNW,328,0.0,2.0,57,0.00,,,0.00,WeatherCatV1.10B1784,2013-02-14 14:43:00,
2013-02-14 06:48:00,51.3,36.6,30.13,NNW,341,0.0,5.0,57,0.00,,,0.00,WeatherCatV1.10B1784,2013-02-14 14:48:00,
2013-02-14 06:53:00,51.2,36.5,30.13,NNW,341,1.0,3.0,57,0.00,,,0.00,WeatherCatV1.10B1784,2013-02-14 14:53:00,
2013-02-14 06:58:00,51.2,36.5,30.13,NNW,343,4.0,6.0,57,0.00,,,0.00,WeatherCatV1.10B1784,2013-02-14 14:58:00,
2013-02-14 07:03:00,51.1,36.4,30.13,NNW,334,2.0,5.0,57,0.00,,,0.00,WeatherCatV1.10B1784,2013-02-14 15:03:00,
2013-02-14 07:08:00,51.1,36.4,30.13,NNW,333,2.0,2.0,57,0.00,,,0.00,WeatherCatV1.10B1784,2013-02-14 15:08:00,
2013-02-14 07:13:00,51.0,36.7,30.13,NNW,328,5.0,5.0,58,0.00,,,0.00,WeatherCatV1.10B1784,2013-02-14 15:13:00,
2013-02-14 07:18:00,51.0,36.3,30.13,NNW,337,5.0,6.0,57,0.00,,,0.00,WeatherCatV1.10B1784,2013-02-14 15:18:00,
2013-02-14 07:23:00,51.2,36.5,30.13,NE,55,3.0,7.0,57,0.00,,,0.00,WeatherCatV1.10B1784,2013-02-14 15:23:00,
2013-02-14 07:28:00,51.3,36.6,30.13,NNW,339,2.0,9.0,57,0.00,,,0.00,WeatherCatV1.10B1784,2013-02-14 15:28:00,
2013-02-14 07:33:00,51.2,36.5,30.13,NNW,339,1.0,7.0,57,0.00,,,0.00,WeatherCatV1.10B1784,2013-02-14 15:33:00,
2013-02-14 07:38:00,51.3,36.6,30.13,North,4,2.0,5.0,57,0.00,,,0.00,WeatherCatV1.10B1784,2013-02-14 15:38:00,
2013-02-14 07:43:00,51.3,36.6,30.13,NNW,338,5.0,8.0,57,0.00,,,0.00,WeatherCatV1.10B1784,2013-02-14 15:43:00,
2013-02-14 07:48:00,51.6,36.9,30.14,North,351,2.0,9.0,57,0.00,,,0.00,WeatherCatV1.10B1784,2013-02-14 15:48:00,
2013-02-14 07:53:00,51.6,36.4,30.14,NNW,343,2.0,10.0,56,0.00,,,0.00,WeatherCatV1.10B1784,2013-02-14 15:53:00,
2013-02-14 07:58:00,51.8,36.6,30.14,NW,313,9.0,9.0,56,0.00,,,0.00,WeatherCatV1.10B1784,2013-02-14 15:58:00,
2013-02-14 08:03:00,52.0,36.3,30.14,NNW,331,4.0,8.0,55,0.00,,,0.00,WeatherCatV1.10B1784,2013-02-14 16:03:00,
2013-02-14 08:08:00,52.1,36.4,30.14,North,0,2.0,5.0,55,0.00,,,0.00,WeatherCatV1.10B1784,2013-02-14 16:08:00,
2013-02-14 08:13:00,52.0,36.8,30.14,NNW,345,4.0,6.0,56,0.00,,,0.00,WeatherCatV1.10B1784,2013-02-14 16:13:00,
2013-02-14 08:18:00,52.0,36.3,30.14,NNW,339,2.0,8.0,55,0.00,,,0.00,WeatherCatV1.10B1784,2013-02-14 16:18:00,
2013-02-14 08:23:00,52.1,37.3,30.14,NNW,327,4.0,5.0,57,0.00,,,0.00,WeatherCatV1.10B1784,2013-02-14 16:23:00,
2013-02-14 08:28:00,52.0,37.2,30.14,NNW,339,4.0,6.0,57,0.00,,,0.00,WeatherCatV1.10B1784,2013-02-14 16:28:00,
2013-02-14 08:33:00,52.1,37.3,30.15,NNW,337,3.0,4.0,57,0.00,,,0.00,WeatherCatV1.10B1784,2013-02-14 16:33:00,
2013-02-14 08:38:00,52.2,37.0,30.15,NE,50,0.0,5.0,56,0.00,,,0.00,WeatherCatV1.10B1784,2013-02-14 16:38:00,
2013-02-14 08:43:00,52.3,37.5,30.15,NNW,348,3.0,9.0,57,0.00,,,0.00,WeatherCatV1.10B1784,2013-02-14 16:43:00,
2013-02-14 08:48:00,52.4,37.6,30.15,NNW,341,4.0,6.0,57,0.00,,,0.00,WeatherCatV1.10B1784,2013-02-14 16:48:00,
2013-02-14 08:53:00,52.5,37.7,30.15,NNW,337,4.0,5.0,57,0.00,,,0.00,WeatherCatV1.10B1784,2013-02-14 16:53:00,
2013-02-14 08:58:00,52.6,38.2,30.15,NNW,347,2.0,6.0,58,0.00,,,0.00,WeatherCatV1.10B1784,2013-02-14 16:58:00,
2013-02-14 09:03:00,52.9,38.5,30.15,North,350,1.0,5.0,58,0.00,,,0.00,WeatherCatV1.10B1784,2013-02-14 17:03:00,
2013-02-14 09:08:00,53.3,38.5,30.15,ESE,116,1.0,5.0,57,0.00,,,0.00,WeatherCatV1.10B1784,2013-02-14 17:08:00,
2013-02-14 09:13:00,53.7,38.8,30.15,NNW,334,3.0,3.0,57,0.00,,,0.00,WeatherCatV1.10B1784,2013-02-14 17:13:00,
2013-02-14 09:19:00,54.4,39.0,30.15,NNW,341,3.0,3.0,56,0.00,,,0.00,WeatherCatV1.10B1784,2013-02-14 17:19:00,
2013-02-14 09:24:00,54.5,38.7,30.15,NNW,344,3.0,5.0,55,0.00,,,0.00,WeatherCatV1.10B1784,2013-02-14 17:24:00,
2013-02-14 09:29:00,54.5,38.7,30.15,NNW,333,3.0,3.0,55,0.00,,,0.00,WeatherCatV1.10B1784,2013-02-14 17:29:00,
2013-02-14 09:34:00,54.6,38.8,30.15,North,349,0.0,5.0,55,0.00,,,0.00,WeatherCatV1.10B1784,2013-02-14 17:34:00,
2013-02-14 09:39:00,54.8,39.4,30.15,NNW,337,0.0,4.0,56,0.00,,,0.00,WeatherCatV1.10B1784,2013-02-14 17:39:00,
2013-02-14 09:44:00,54.8,38.9,30.15,NNW,335,1.0,2.0,55,0.00,,,0.00,WeatherCatV1.10B1784,2013-02-14 17:44:00,
2013-02-14 09:49:00,55.5,39.1,30.15,SE,142,0.0,0.0,54,0.00,,,0.00,WeatherCatV1.10B1784,2013-02-14 17:49:00,
2013-02-14 09:54:00,56.2,38.8,30.15,North,349,1.0,2.0,52,0.00,,,0.00,WeatherCatV1.10B1784,2013-02-14 17:54:00,
2013-02-14 09:59:00,57.0,39.5,30.15,NE,52,1.0,1.0,52,0.00,,,0.00,WeatherCatV1.10B1784,2013-02-14 17:59:00,
2013-02-14 10:04:00,57.8,39.3,30.15,NNW,348,1.0,5.0,50,0.00,,,0.00,WeatherCatV1.10B1784,2013-02-14 18:04:00,
2013-02-14 10:09:00,57.8,39.3,30.15,ENE,69,1.0,1.0,50,0.00,,,0.00,WeatherCatV1.10B1784,2013-02-14 18:09:00,
2013-02-14 10:14:00,58.1,40.1,30.15,NW,317,0.0,5.0,51,0.00,,,0.00,WeatherCatV1.10B1784,2013-02-14 18:14:00,
2013-02-14 10:19:00,58.3,39.2,30.16,NNE,14,0.0,1.0,49,0.00,,,0.00,WeatherCatV1.10B1784,2013-02-14 18:19:00,
2013-02-14 10:24:00,58.5,38.9,30.16,NNW,345,0.0,2.0,48,0.00,,,0.00,WeatherCatV1.10B1784,2013-02-14 18:24:00,
2013-02-14 10:29:00,58.8,39.2,30.16,North,9,1.0,6.0,48,0.00,,,0.00,WeatherCatV1.10B1784,2013-02-14 18:29:00,
2013-02-14 10:34:00,58.5,38.9,30.16,North,5,1.0,8.0,48,0.00,,,0.00,WeatherCatV1.10B1784,2013-02-14 18:34:00,
2013-02-14 10:39:00,58.0,37.9,30.16,North,353,2.0,5.0,47,0.00,,,0.00,WeatherCatV1.10B1784,2013-02-14 18:39:00,
2013-02-14 10:44:00,58.2,38.6,30.16,NNW,332,4.0,5.0,48,0.00,,,0.00,WeatherCatV1.10B1784,2013-02-14 18:44:00,
2013-02-14 10:49:00,58.9,39.2,30.15,NE,49,0.0,1.0,48,0.00,,,0.00,WeatherCatV1.10B1784,2013-02-14 18:49:00,
2013-02-14 10:54:00,59.5,38.7,30.15,NNW,344,1.0,3.0,46,0.00,,,0.00,WeatherCatV1.10B1784,2013-02-14 18:54:00,
2013-02-14 10:59:00,59.6,38.8,30.15,North,357,3.0,4.0,46,0.00,,,0.00,WeatherCatV1.10B1784,2013-02-14 18:59:00,
2013-02-14 11:04:00,59.3,38.5,30.14,NNW,341,3.0,6.0,46,0.00,,,0.00,WeatherCatV1.10B1784,2013-02-14 19:04:00,
2013-02-14 11:09:00,59.4,38.6,30.14,NNW,348,1.0,3.0,46,0.00,,,0.00,WeatherCatV1.10B1784,2013-02-14 19:09:00,
2013-02-14 11:14:00,59.6,38.8,30.14,NNW,347,0.0,2.0,46,0.00,,,0.00,WeatherCatV1.10B1784,2013-02-14 19:14:00,
2013-02-14 11:19:00,59.8,39.5,30.15,NNW,329,1.0,2.0,47,0.00,,,0.00,WeatherCatV1.10B1784,2013-02-14 19:19:00,
2013-02-14 11:24:00,59.9,37.9,30.15,NNW,337,0.0,5.0,44,0.00,,,0.00,WeatherCatV1.10B1784,2013-02-14 19:24:00,
2013-02-14 11:29:00,60.2,38.2,30.15,North,355,1.0,1.0,44,0.00,,,0.00,WeatherCatV1.10B1784,2013-02-14 19:29:00,
2013-02-14 11:34:00,61.2,40.3,30.16,South,175,0.0,1.0,46,0.00,,,0.00,WeatherCatV1.10B1784,2013-02-14 19:34:00,
2013-02-14 11:39:00,62.6,40.4,30.16,South,179,1.0,2.0,44,0.00,,,0.00,WeatherCatV1.10B1784,2013-02-14 19:39:00,
2013-02-14 11:44:00,63.5,40.0,30.16,NW,316,0.0,1.0,42,0.00,,,0.00,WeatherCatV1.10B1784,2013-02-14 19:44:00,
2013-02-14 11:49:00,64.3,40.7,30.15,South,175,1.0,1.0,42,0.00,,,0.00,WeatherCatV1.10B1784,2013-02-14 19:49:00,
2013-02-14 11:54:00,64.8,40.5,30.15,NE,52,1.0,1.0,41,0.00,,,0.00,WeatherCatV1.10B1784,2013-02-14 19:54:00,
2013-02-14 11:59:00,65.0,42.0,30.15,NE,34,0.0,1.0,43,0.00,,,0.00,WeatherCatV1.10B1784,2013-02-14 19:59:00,
2013-02-14 12:04:00,64.9,39.3,30.14,NNW,348,2.0,3.0,39,0.00,,,0.00,WeatherCatV1.10B1784,2013-02-14 20:04:00,
2013-02-14 12:09:00,64.4,38.9,30.14,North,357,0.0,1.0,39,0.00,,,0.00,WeatherCatV1.10B1784,2013-02-14 20:09:00,
2013-02-14 12:14:00,64.4,40.2,30.14,SSW,207,0.0,1.0,41,0.00,,,0.00,WeatherCatV1.10B1784,2013-02-14 20:14:00,
2013-02-14 12:19:00,64.7,41.7,30.14,SSE,167,0.0,2.0,43,0.00,,,0.00,WeatherCatV1.10B1784,2013-02-14 20:19:00,
2013-02-14 12:24:00,64.6,41.0,30.14,South,169,1.0,3.0,42,0.00,,,0.00,WeatherCatV1.10B1784,2013-02-14 20:24:00,
2013-02-14 12:29:00,64.6,40.4,30.14,East,91,1.0,3.0,41,0.00,,,0.00,WeatherCatV1.10B1784,2013-02-14 20:29:00,
2013-02-14 12:34:00,64.2,38.1,30.13,NNW,329,2.0,4.0,38,0.00,,,0.00,WeatherCatV1.10B1784,2013-02-14 20:34:00,
2013-02-14 12:39:00,63.3,37.3,30.13,NNW,329,2.0,3.0,38,0.00,,,0.00,WeatherCatV1.10B1784,2013-02-14 20:39:00,
2013-02-14 12:44:00,63.1,39.0,30.13,NNW,343,1.0,3.0,41,0.00,,,0.00,WeatherCatV1.10B1784,2013-02-14 20:44:00,
2013-02-14 12:49:00,63.6,41.3,30.13,SE,140,4.0,5.0,44,0.00,,,0.00,WeatherCatV1.10B1784,2013-02-14 20:49:00,
2013-02-14 12:54:00,64.2,42.4,30.13,North,352,0.0,2.0,45,0.00,,,0.00,WeatherCatV1.10B1784,2013-02-14 20:54:00,
2013-02-14 12:59:00,64.4,39.5,30.12,NNW,328,0.0,0.0,40,0.00,,,0.00,WeatherCatV1.10B1784,2013-02-14 20:59:00,
2013-02-14 13:04:00,64.1,39.3,30.12,NNE,31,1.0,6.0,40,0.00,,,0.00,WeatherCatV1.10B1784,2013-02-14 21:04:00,
2013-02-14 13:09:00,63.6,40.1,30.12,East,88,0.0,1.0,42,0.00,,,0.00,WeatherCatV1.10B1784,2013-02-14 21:09:00,
2013-02-14 13:14:00,63.8,40.9,30.12,NNE,33,1.0,1.0,43,0.00,,,0.00,WeatherCatV1.10B1784,2013-02-14 21:14:00,
2013-02-14 13:19:00,63.4,39.3,30.12,NNW,339,4.0,6.0,41,0.00,,,0.00,WeatherCatV1.10B1784,2013-02-14 21:19:00,
2013-02-14 13:24:00,62.7,39.3,30.12,East,85,0.0,5.0,42,0.00,,,0.00,WeatherCatV1.10B1784,2013-02-14 21:24:00,
2013-02-14 13:29:00,62.1,39.3,30.12,North,351,0.0,5.0,43,0.00,,,0.00,WeatherCatV1.10B1784,2013-02-14 21:29:00,
2013-02-14 13:34:00,62.0,39.8,30.12,NNW,340,1.0,1.0,44,0.00,,,0.00,WeatherCatV1.10B1784,2013-02-14 21:34:00,
2013-02-14 13:39:00,62.1,39.3,30.12,NNE,13,2.0,4.0,43,0.00,,,0.00,WeatherCatV1.10B1784,2013-02-14 21:39:00,
2013-02-14 13:44:00,62.3,38.9,30.11,NNW,346,0.0,1.0,42,0.00,,,0.00,WeatherCatV1.10B1784,2013-02-14 21:44:00,
2013-02-14 13:49:00,62.5,39.7,30.11,NE,50,0.0,2.0,43,0.00,,,0.00,WeatherCatV1.10B1784,2013-02-14 21:49:00,
2013-02-14 13:54:00,63.1,40.8,30.11,SSE,154,0.0,0.0,44,0.00,,,0.00,WeatherCatV1.10B1784,2013-02-14 21:54:00,
2013-02-14 13:59:00,63.5,40.0,30.11,SE,140,0.0,1.0,42,0.00,,,0.00,WeatherCatV1.10B1784,2013-02-14 21:59:00,
2013-02-14 14:04:00,64.0,39.2,30.11,SSE,158,0.0,1.0,40,0.00,,,0.00,WeatherCatV1.10B1784,2013-02-14 22:04:00,
2013-02-14 14:09:00,64.4,39.5,30.11,SE,144,0.0,1.0,40,0.00,,,0.00,WeatherCatV1.10B1784,2013-02-14 22:09:00,
2013-02-14 14:14:00,64.4,39.5,30.11,SSE,161,1.0,1.0,40,0.00,,,0.00,WeatherCatV1.10B1784,2013-02-14 22:14:00,
2013-02-14 14:19:00,64.3,40.1,30.11,SSE,161,0.0,0.0,41,0.00,,,0.00,WeatherCatV1.10B1784,2013-02-14 22:19:00,
2013-02-14 14:24:00,64.3,38.1,30.11,SSE,161,0.0,0.0,38,0.00,,,0.00,WeatherCatV1.10B1784,2013-02-14 22:24:00,
2013-02-14 14:29:00,64.5,36.2,30.11,SSE,150,0.0,0.0,35,0.00,,,0.00,WeatherCatV1.10B1784,2013-02-14 22:29:00,
2013-02-14 14:34:00,64.6,35.6,30.11,ESE,103,0.0,0.0,34,0.00,,,0.00,WeatherCatV1.10B1784,2013-02-14 22:34:00,
2013-02-14 14:39:00,64.7,35.7,30.11,South,169,0.0,5.0,34,0.00,,,0.00,WeatherCatV1.10B1784,2013-02-14 22:39:00,
2013-02-14 14:44:00,64.8,37.2,30.11,South,186,0.0,0.0,36,0.00,,,0.00,WeatherCatV1.10B1784,2013-02-14 22:44:00,
2013-02-14 14:49:00,64.9,35.9,30.10,SSE,167,3.0,3.0,34,0.00,,,0.00,WeatherCatV1.10B1784,2013-02-14 22:49:00,
2013-02-14 14:54:00,64.9,36.6,30.10,SSW,200,0.0,1.0,35,0.00,,,0.00,WeatherCatV1.10B1784,2013-02-14 22:54:00,
2013-02-14 14:59:00,64.7,35.7,30.10,North,354,0.0,1.0,34,0.00,,,0.00,WeatherCatV1.10B1784,2013-02-14 22:59:00,
2013-02-14 15:04:00,64.8,36.5,30.10,NNW,348,0.0,0.0,35,0.00,,,0.00,WeatherCatV1.10B1784,2013-02-14 23:04:00,
2013-02-14 15:09:00,64.8,35.8,30.10,South,190,0.0,2.0,34,0.00,,,0.00,WeatherCatV1.10B1784,2013-02-14 23:09:00,
2013-02-14 15:14:00,64.9,38.7,30.10,NW,318,0.0,0.0,38,0.00,,,0.00,WeatherCatV1.10B1784,2013-02-14 23:14:00,
2013-02-14 15:19:00,64.9,38.7,30.10,WNW,291,0.0,1.0,38,0.00,,,0.00,WeatherCatV1.10B1784,2013-02-14 23:19:00,
2013-02-14 15:24:00,64.8,39.3,30.10,WNW,291,0.0,0.0,39,0.00,,,0.00,WeatherCatV1.10B1784,2013-02-14 23:24:00,
2013-02-14 15:29:00,64.8,37.9,30.10,NNW,329,0.0,2.0,37,0.00,,,0.00,WeatherCatV1.10B1784,2013-02-14 23:29:00,
2013-02-14 15:34:00,64.0,39.2,30.10,NNW,334,1.0,3.0,40,0.00,,,0.00,WeatherCatV1.10B1784,2013-02-14 23:34:00,
2013-02-14 15:39:00,63.3,39.2,30.10,NE,36,0.0,2.0,41,0.00,,,0.00,WeatherCatV1.10B1784,2013-02-14 23:39:00,
2013-02-14 15:44:00,62.8,39.4,30.10,NNW,336,0.0,2.0,42,0.00,,,0.00,WeatherCatV1.10B1784,2013-02-14 23:44:00,
2013-02-14 15:49:00,62.5,39.1,30.10,NW,325,0.0,4.0,42,0.00,,,0.00,WeatherCatV1.10B1784,2013-02-14 23:49:00,
2013-02-14 15:54:00,62.2,38.8,30.10,NNW,333,0.0,3.0,42,0.00,,,0.00,WeatherCatV1.10B1784,2013-02-14 23:54:00,
2013-02-14 15:59:00,61.9,38.6,30.10,NW,325,7.0,8.0,42,0.00,,,0.00,WeatherCatV1.10B1784,2013-02-14 23:59:00,
2013-02-14 16:04:00,61.3,39.2,30.10,East,97,2.0,7.0,44,0.00,,,0.00,WeatherCatV1.10B1784,2013-02-15 00:04:00,
2013-02-14 16:09:00,60.7,38.7,30.10,NW,321,3.0,5.0,44,0.00,,,0.00,WeatherCatV1.10B1784,2013-02-15 00:09:00,
2013-02-14 16:14:00,60.5,38.5,30.10,NW,321,0.0,3.0,44,0.00,,,0.00,WeatherCatV1.10B1784,2013-02-15 00:14:00,
2013-02-14 16:19:00,60.3,38.9,30.10,NNW,331,3.0,3.0,45,0.00,,,0.00,WeatherCatV1.10B1784,2013-02-15 00:19:00,
2013-02-14 16:24:00,60.0,38.6,30.10,NNW,335,5.0,5.0,45,0.00,,,0.00,WeatherCatV1.10B1784,2013-02-15 00:24:00,
2013-02-14 16:29:00,59.7,38.3,30.11,NNW,339,4.0,6.0,45,0.00,,,0.00,WeatherCatV1.10B1784,2013-02-15 00:29:00,
2013-02-14 16:34:00,59.6,38.8,30.11,NNW,339,2.0,5.0,46,0.00,,,0.00,WeatherCatV1.10B1784,2013-02-15 00:34:00,
2013-02-14 16:39:00,59.6,38.8,30.11,NW,321,3.0,3.0,46,0.00,,,0.00,WeatherCatV1.10B1784,2013-02-15 00:39:00,
2013-02-14 16:44:00,59.5,38.1,30.10,NNW,348,4.0,6.0,45,0.00,,,0.00,WeatherCatV1.10B1784,2013-02-15 00:44:00,
2013-02-14 16:49:00,59.2,37.9,30.10,NNW,335,4.0,10.0,45,0.00,,,0.00,WeatherCatV1.10B1784,2013-02-15 00:49:00,
2013-02-14 16:54:00,58.7,38.0,30.10,NNW,336,6.0,9.0,46,0.00,,,0.00,WeatherCatV1.10B1784,2013-02-15 00:54:00,
2013-02-14 16:59:00,58.3,38.2,30.10,NNW,329,2.0,6.0,47,0.00,,,0.00,WeatherCatV1.10B1784,2013-02-15 00:59:00,
2013-02-14 17:04:00,58.1,38.0,30.10,NNW,332,7.0,7.0,47,0.00,,,0.00,WeatherCatV1.10B1784,2013-02-15 01:04:00,
2013-02-14 17:09:00,57.9,38.3,30.10,NNW,336,6.0,8.0,48,0.00,,,0.00,WeatherCatV1.10B1784,2013-02-15 01:09:00,
2013-02-14 17:14:00,57.8,38.2,30.10,NNW,348,5.0,7.0,48,0.00,,,0.00,WeatherCatV1.10B1784,2013-02-15 01:14:00,
2013-02-14 17:19:00,57.7,38.7,30.10,NNW,339,6.0,8.0,49,0.00,,,0.00,WeatherCatV1.10B1784,2013-02-15 01:19:00,
2013-02-14 17:24:00,57.6,38.6,30.10,West,270,5.0,7.0,49,0.00,,,0.00,WeatherCatV1.10B1784,2013-02-15 01:24:00,
2013-02-14 17:29:00,57.3,38.3,30.10,NNW,335,5.0,9.0,49,0.00,,,0.00,WeatherCatV1.10B1784,2013-02-15 01:29:00,
2013-02-14 17:34:00,57.1,38.6,30.10,NW,320,5.0,8.0,50,0.00,,,0.00,WeatherCatV1.10B1784,2013-02-15 01:34:00,
2013-02-14 17:39:00,56.9,38.5,30.10,NNW,340,6.0,8.0,50,0.00,,,0.00,WeatherCatV1.10B1784,2013-02-15 01:39:00,
2013-02-14 17:44:00,56.6,38.2,30.10,NNW,337,6.0,8.0,50,0.00,,,0.00,WeatherCatV1.10B1784,2013-02-15 01:44:00,
2013-02-14 17:49:00,56.5,38.1,30.10,NNW,347,5.0,8.0,50,0.00,,,0.00,WeatherCatV1.10B1784,2013-02-15 01:49:00,
2013-02-14 17:54:00,56.6,38.2,30.10,NNE,26,3.0,9.0,50,0.00,,,0.00,WeatherCatV1.10B1784,2013-02-15 01:54:00,
2013-02-14 17:59:00,56.6,37.7,30.10,NNW,340,6.0,10.0,49,0.00,,,0.00,WeatherCatV1.10B1784,2013-02-15 01:59:00,
2013-02-14 18:04:00,56.7,37.2,30.10,NNW,337,5.0,6.0,48,0.00,,,0.00,WeatherCatV1.10B1784,2013-02-15 02:04:00,
2013-02-14 18:09:00,57.0,37.0,30.10,NNW,335,4.0,6.0,47,0.00,,,0.00,WeatherCatV1.10B1784,2013-02-15 02:09:00,
2013-02-14 18:14:00,57.1,37.1,30.10,NNW,344,6.0,8.0,47,0.00,,,0.00,WeatherCatV1.10B1784,2013-02-15 02:14:00,
2013-02-14 18:19:00,57.2,37.2,30.10,NNW,344,4.0,7.0,47,0.00,,,0.00,WeatherCatV1.10B1784,2013-02-15 02:19:00,
2013-02-14 18:24:00,57.2,36.6,30.10,NNW,331,4.0,6.0,46,0.00,,,0.00,WeatherCatV1.10B1784,2013-02-15 02:24:00,
2013-02-14 18:29:00,57.4,36.8,30.11,NNW,327,5.0,8.0,46,0.00,,,0.00,WeatherCatV1.10B1784,2013-02-15 02:29:00,
2013-02-14 18:34:00,57.4,36.8,30.11,NNW,336,6.0,7.0,46,0.00,,,0.00,WeatherCatV1.10B1784,2013-02-15 02:34:00,
2013-02-14 18:39:00,57.3,36.7,30.11,NW,323,4.0,5.0,46,0.00,,,0.00,WeatherCatV1.10B1784,2013-02-15 02:39:00,
2013-02-14 18:44:00,57.0,36.4,30.12,North,0,4.0,9.0,46,0.00,,,0.00,WeatherCatV1.10B1784,2013-02-15 02:44:00,
2013-02-14 18:49:00,56.9,36.3,30.12,NNW,341,4.0,6.0,46,0.00,,,0.00,WeatherCatV1.10B1784,2013-02-15 02:49:00,
2013-02-14 18:54:00,57.0,36.4,30.12,NNW,335,4.0,9.0,46,0.00,,,0.00,WeatherCatV1.10B1784,2013-02-15 02:54:00,
2013-02-14 18:59:00,57.1,36.5,30.12,NNW,337,6.0,8.0,46,0.00,,,0.00,WeatherCatV1.10B1784,2013-02-15 02:59:00,
2013-02-14 19:04:00,57.1,36.5,30.12,NNW,342,5.0,6.0,46,0.00,,,0.00,WeatherCatV1.10B1784,2013-02-15 03:04:00,
2013-02-14 19:09:00,57.2,36.6,30.12,NW,319,6.0,7.0,46,0.00,,,0.00,WeatherCatV1.10B1784,2013-02-15 03:09:00,
2013-02-14 19:14:00,57.1,36.5,30.12,NNW,340,2.0,6.0,46,0.00,,,0.00,WeatherCatV1.10B1784,2013-02-15 03:14:00,
2013-02-14 19:19:00,56.8,36.2,30.12,NNW,343,5.0,6.0,46,0.00,,,0.00,WeatherCatV1.10B1784,2013-02-15 03:19:00,
2013-02-14 19:24:00,56.7,36.7,30.12,NNW,333,3.0,5.0,47,0.00,,,0.00,WeatherCatV1.10B1784,2013-02-15 03:24:00,
2013-02-14 19:29:00,56.7,36.2,30.12,NNW,339,7.0,8.0,46,0.00,,,0.00,WeatherCatV1.10B1784,2013-02-15 03:29:00,
2013-02-14 19:34:00,56.9,36.3,30.12,NW,322,5.0,7.0,46,0.00,,,0.00,WeatherCatV1.10B1784,2013-02-15 03:34:00,
2013-02-14 19:39:00,56.6,36.1,30.12,NNW,343,5.0,7.0,46,0.00,,,0.00,WeatherCatV1.10B1784,2013-02-15 03:39:00,
2013-02-14 19:44:00,56.4,35.9,30.12,NNW,348,6.0,7.0,46,0.00,,,0.00,WeatherCatV1.10B1784,2013-02-15 03:44:00,
2013-02-14 19:49:00,56.3,35.8,30.12,NNW,336,4.0,6.0,46,0.00,,,0.00,WeatherCatV1.10B1784,2013-02-15 03:49:00,
2013-02-14 19:54:00,56.1,35.6,30.12,NNW,345,4.0,5.0,46,0.00,,,0.00,WeatherCatV1.10B1784,2013-02-15 03:54:00,
2013-02-14 19:59:00,56.0,35.0,30.13,NW,326,5.0,6.0,45,0.00,,,0.00,WeatherCatV1.10B1784,2013-02-15 03:59:00,
2013-02-14 20:04:00,56.1,34.5,30.13,NNW,341,4.0,5.0,44,0.00,,,0.00,WeatherCatV1.10B1784,2013-02-15 04:04:00,
2013-02-14 20:09:00,56.0,34.4,30.13,NNW,334,6.0,8.0,44,0.00,,,0.00,WeatherCatV1.10B1784,2013-02-15 04:09:00,
2013-02-14 20:14:00,56.2,34.6,30.14,NNW,338,5.0,7.0,44,0.00,,,0.00,WeatherCatV1.10B1784,2013-02-15 04:14:00,
2013-02-14 20:19:00,56.0,34.4,30.14,NNW,332,7.0,9.0,44,0.00,,,0.00,WeatherCatV1.10B1784,2013-02-15 04:19:00,
2013-02-14 20:24:00,56.2,34.0,30.14,NNW,335,5.0,6.0,43,0.00,,,0.00,WeatherCatV1.10B1784,2013-02-15 04:24:00,
2013-02-14 20:29:00,56.3,34.1,30.14,North,350,2.0,6.0,43,0.00,,,0.00,WeatherCatV1.10B1784,2013-02-15 04:29:00,
2013-02-14 20:34:00,56.3,34.1,30.14,NNW,333,5.0,5.0,43,0.00,,,0.00,WeatherCatV1.10B1784,2013-02-15 04:34:00,
2013-02-14 20:39:00,56.3,34.1,30.14,NNE,14,4.0,6.0,43,0.00,,,0.00,WeatherCatV1.10B1784,2013-02-15 04:39:00,
2013-02-14 20:44:00,56.4,34.2,30.14,NW,323,6.0,6.0,43,0.00,,,0.00,WeatherCatV1.10B1784,2013-02-15 04:44:00,
2013-02-14 20:49:00,56.8,34.5,30.14,NNW,338,4.0,8.0,43,0.00,,,0.00,WeatherCatV1.10B1784,2013-02-15 04:49:00,
2013-02-14 20:54:00,57.3,35.6,30.14,NNW,337,4.0,6.0,44,0.00,,,0.00,WeatherCatV1.10B1784,2013-02-15 04:54:00,
2013-02-14 20:59:00,57.4,35.1,30.14,NNW,342,5.0,8.0,43,0.00,,,0.00,WeatherCatV1.10B1784,2013-02-15 04:59:00,
2013-02-14 21:00:00,57.5,35.2,30.14,NNW,347,5.0,8.0,43,0.00,,,0.00,WeatherCatV1.10B1784,2013-02-15 05:00:00,
2013-02-14 21:05:00,57.7,35.4,30.14,NNW,331,3.0,6.0,43,0.00,,,0.00,WeatherCatV1.10B1784,2013-02-15 05:05:00,
2013-02-14 21:10:00,57.4,35.1,30.14,NNW,337,5.0,6.0,43,0.00,,,0.00,WeatherCatV1.10B1784,2013-02-15 05:10:00,
2013-02-14 21:15:00,57.2,35.5,30.14,NNW,339,5.0,6.0,44,0.00,,,0.00,WeatherCatV1.10B1784,2013-02-15 05:15:00,
2013-02-14 21:20:00,57.5,35.2,30.14,North,359,6.0,7.0,43,0.00,,,0.00,WeatherCatV1.10B1784,2013-02-15 05:20:00,
2013-02-14 21:25:00,57.7,35.4,30.14,NNW,342,4.0,5.0,43,0.00,,,0.00,WeatherCatV1.10B1784,2013-02-15 05:25:00,
2013-02-14 21:30:00,57.6,35.3,30.15,NNW,334,4.0,6.0,43,0.00,,,0.00,WeatherCatV1.10B1784,2013-02-15 05:30:00,
2013-02-14 21:35:00,57.5,35.2,30.15,NNW,335,4.0,6.0,43,0.00,,,0.00,WeatherCatV1.10B1784,2013-02-15 05:35:00,
2013-02-14 21:40:00,57.3,35.6,30.15,NNW,331,6.0,7.0,44,0.00,,,0.00,WeatherCatV1.10B1784,2013-02-15 05:40:00,
2013-02-14 21:45:00,57.3,35.0,30.15,NNW,329,4.0,6.0,43,0.00,,,0.00,WeatherCatV1.10B1784,2013-02-15 05:45:00,
2013-02-14 21:50:00,57.7,35.4,30.15,NNW,339,3.0,5.0,43,0.00,,,0.00,WeatherCatV1.10B1784,2013-02-15 05:50:00,
2013-02-14 21:55:00,57.7,34.8,30.15,NNW,341,5.0,5.0,42,0.00,,,0.00,WeatherCatV1.10B1784,2013-02-15 05:55:00,
2013-02-14 22:00:00,57.7,34.8,30.15,NNW,341,4.0,5.0,42,0.00,,,0.00,WeatherCatV1.10B1784,2013-02-15 06:00:00,
2013-02-14 22:05:00,57.7,34.2,30.15,NNW,337,4.0,6.0,41,0.00,,,0.00,WeatherCatV1.10B1784,2013-02-15 06:05:00,
2013-02-14 22:10:00,57.8,34.3,30.15,North,0,3.0,7.0,41,0.00,,,0.00,WeatherCatV1.10B1784,2013-02-15 06:10:00,
2013-02-14 22:15:00,58.1,34.5,30.15,NNW,330,3.0,6.0,41,0.00,,,0.00,WeatherCatV1.10B1784,2013-02-15 06:15:00,
2013-02-14 22:20:00,58.1,34.5,30.15,North,352,3.0,5.0,41,0.00,,,0.00,WeatherCatV1.10B1784,2013-02-15 06:20:00,
2013-02-14 22:25:00,58.2,35.2,30.15,NNW,339,3.0,5.0,42,0.00,,,0.00,WeatherCatV1.10B1784,2013-02-15 06:25:00,
2013-02-14 22:30:00,58.2,35.2,30.15,NNW,333,4.0,5.0,42,0.00,,,0.00,WeatherCatV1.10B1784,2013-02-15 06:30:00,
2013-02-14 22:35:00,58.2,35.2,30.15,NW,325,3.0,5.0,42,0.00,,,0.00,WeatherCatV1.10B1784,2013-02-15 06:35:00,
2013-02-14 22:40:00,58.3,35.3,30.15,NNW,341,2.0,4.0,42,0.00,,,0.00,WeatherCatV1.10B1784,2013-02-15 06:40:00,
2013-02-14 22:45:00,58.4,34.8,30.15,NW,323,2.0,4.0,41,0.00,,,0.00,WeatherCatV1.10B1784,2013-02-15 06:45:00,
2013-02-14 22:50:00,58.3,34.1,30.15,NNW,338,2.0,4.0,40,0.00,,,0.00,WeatherCatV1.10B1784,2013-02-15 06:50:00,
2013-02-14 22:55:00,58.4,34.2,30.15,NNW,343,1.0,4.0,40,0.00,,,0.00,WeatherCatV1.10B1784,2013-02-15 06:55:00,
2013-02-14 23:00:00,58.4,33.5,30.16,NW,325,2.0,4.0,39,0.00,,,0.00,WeatherCatV1.10B1784,2013-02-15 07:00:00,
2013-02-14 23:05:00,58.4,33.5,30.16,NNW,336,3.0,4.0,39,0.00,,,0.00,WeatherCatV1.10B1784,2013-02-15 07:05:00,
2013-02-14 23:10:00,58.3,33.5,30.16,NNW,335,2.0,3.0,39,0.00,,,0.00,WeatherCatV1.10B1784,2013-02-15 07:10:00,
2013-02-14 23:15:00,58.3,33.5,30.16,NNW,334,3.0,4.0,39,0.00,,,0.00,WeatherCatV1.10B1784,2013-02-15 07:15:00,
2013-02-14 23:20:00,58.4,34.2,30.16,NNW,331,3.0,3.0,40,0.00,,,0.00,WeatherCatV1.10B1784,2013-02-15 07:20:00,
2013-02-14 23:25:00,58.3,33.5,30.16,NNW,337,1.0,3.0,39,0.00,,,0.00,WeatherCatV1.10B1784,2013-02-15 07:25:00,
2013-02-14 23:30:00,58.3,33.5,30.17,NNW,333,2.0,2.0,39,0.00,,,0.00,WeatherCatV1.10B1784,2013-02-15 07:30:00,
2013-02-14 23:35:00,58.3,33.5,30.17,NNW,333,0.0,0.0,39,0.00,,,0.00,WeatherCatV1.10B1784,2013-02-15 07:35:00,
2013-02-14 23:40:00,58.1,33.3,30.17,NNW,333,0.0,1.0,39,0.00,,,0.00,WeatherCatV1.10B1784,2013-02-15 07:40:00,
2013-02-14 23:45:00,58.0,32.5,30.16,NNW,333,0.0,0.0,38,0.00,,,0.00,WeatherCatV1.10B1784,2013-02-15 07:45:00,
2013-02-14 23:50:00,57.7,32.9,30.16,NNW,333,0.0,1.0,39,0.00,,,0.00,WeatherCatV1.10B1784,2013-02-15 07:50:00,
2013-02-14 23:55:00,57.5,32.7,30.16,NNW,333,0.0,0.0,39,0.00,,,0.00,WeatherCatV1.10B1784,2013-02-15 07:55:00,